WetterOnline ( http://www.wetteronline.de )

Wetter aktuell Ueckermünde

Aktuelles Wetter: Ueckermünde (7m)

6-stündlich | Neueste Meldungen
Ortszeit Temperatur Wetter
Sa, 21.07. 2:00 13.3° C wolkig
Fr, 20.07. 20:00 20.6° C leicht bewölkt
Fr, 20.07. 14:00 23.4° C wolkig
Fr, 20.07. 8:00 17.5° C wolkenlos
Fr, 20.07. 2:00 13.2° C wolkenlos
Do, 19.07. 20:00 21.7° C fast wolkenlos
Do, 19.07. 14:00 22.1° C bedeckt
Do, 19.07. 8:00 19.3° C bewölkt
Ortszeit Temperatur Wetter
Sa, 21.07. 6:00 11.7° C bedeckt
Sa, 21.07. 5:40 11.6° C bedeckt
Sa, 21.07. 5:30 11.3° C bedeckt
Sa, 21.07. 5:20 11.3° C bedeckt
Sa, 21.07. 5:10 11.3° C bedeckt
Sa, 21.07. 5:00 11.4° C wolkenlos
Sa, 21.07. 4:50 11.4° C wolkenlos
Sa, 21.07. 4:30 11.8° C wolkenlos
Sa, 21.07. 4:00 10.6° C wolkenlos
Sa, 21.07. 3:30 10.5° C wolkig
Sa, 21.07. 3:00 11.8° C wolkig
Sa, 21.07. 2:30 13.3° C wolkig
Ortszeit Relative Feuchte Sichtweite
Sa, 21.07. 2:00 87% 30 km
Fr, 20.07. 20:00 63% 70 km
Fr, 20.07. 14:00 46% 45 km
Fr, 20.07. 8:00 79% 40 km
Fr, 20.07. 2:00 82% 35 km
Do, 19.07. 20:00 60% 40 km
Do, 19.07. 14:00 59% 35 km
Do, 19.07. 8:00 92% 12 km
Ortszeit Relative Feuchte Sichtweite
Sa, 21.07. 6:00 93% 16 km
Sa, 21.07. 5:40 94% -
Sa, 21.07. 5:30 94% 15 km
Sa, 21.07. 5:20 94% -
Sa, 21.07. 5:10 94% -
Sa, 21.07. 5:00 94% 17 km
Sa, 21.07. 4:50 94% -
Sa, 21.07. 4:30 92% 15 km
Sa, 21.07. 4:00 95% 17 km
Sa, 21.07. 3:30 94% 15 km
Sa, 21.07. 3:00 90% 21 km
Sa, 21.07. 2:30 85% 25 km
Ortszeit Niederschlagsmenge Niederschlagsart
Sa, 21.07. 2:00 0.0 l/m2 in 6 Std. -
Fr, 20.07. 20:00 0.0 l/m2 in 12 Std. -
Fr, 20.07. 14:00 0.0 l/m2 in 6 Std. -
Fr, 20.07. 8:00 0.0 l/m2 in 12 Std. -
Fr, 20.07. 2:00 0.0 l/m2 in 6 Std. -
Do, 19.07. 20:00 0.1 l/m2 in 12 Std. Sprühregen, Niederschlag
Do, 19.07. 14:00 0.1 l/m2 in 6 Std. Regen
Do, 19.07. 8:00 0.3 l/m2 in 12 Std. Regen
Ortszeit Niederschlagsmenge Niederschlagsart
Sa, 21.07. 6:00 0.0 l/m2 in 1 Std. -
Sa, 21.07. 5:40 keine Meldung -
Sa, 21.07. 5:30 0.0 l/m2 in 1 Std. -
Sa, 21.07. 5:20 keine Meldung -
Sa, 21.07. 5:10 keine Meldung -
Sa, 21.07. 5:00 0.0 l/m2 in 1 Std. -
Sa, 21.07. 4:50 keine Meldung -
Sa, 21.07. 4:30 0.0 l/m2 in 1 Std. -
Sa, 21.07. 4:00 0.0 l/m2 in 1 Std. -
Sa, 21.07. 3:30 0.0 l/m2 in 1 Std. -
Sa, 21.07. 3:00 0.0 l/m2 in 1 Std. -
Sa, 21.07. 2:30 0.0 l/m2 in 1 Std. -
Ortszeit Stärke Spitze Richtung
km/h Bft. km/h Grad Sektor
Sa, 21.07. 2:00 7 2 14 210° SW
Fr, 20.07. 20:00 7 2 25 50° NO
Fr, 20.07. 14:00 9 2 22 360° N
Fr, 20.07. 8:00 7 2 14 270° W
Fr, 20.07. 2:00 4 1 22 230° SW
Do, 19.07. 20:00 7 2 29 330° NW
Do, 19.07. 14:00 9 2 35 340° N
Do, 19.07. 8:00 9 2 30 330° NW
Ortszeit Stärke Spitze Richtung
km/h Bft. km/h Grad Sektor
Sa, 21.07. 6:00 7 2 7 220° SW
Sa, 21.07. 5:40 7 2 - 220° SW
Sa, 21.07. 5:30 7 2 7 220° SW
Sa, 21.07. 5:20 7 2 - 220° SW
Sa, 21.07. 5:10 7 2 - 220° SW
Sa, 21.07. 5:00 6 1 7 220° SW
Sa, 21.07. 4:50 6 1 - 220° SW
Sa, 21.07. 4:30 7 2 7 210° SW
Sa, 21.07. 4:00 7 2 7 240° SW
Sa, 21.07. 3:30 6 1 7 230° SW
Sa, 21.07. 3:00 4 1 11 220° SW
Sa, 21.07. 2:30 4 1 11 210° SW
Ortszeit Untergrenze Bedeckung Gattung
total tief tief mittel hoch
Sa, 21.07. 2:00 9000 m 8/8 0/8 - - -
Fr, 20.07. 20:00 9000 m 4/8 0/8 - - -
Fr, 20.07. 14:00 1500 m 8/8 7/8 - - -
Fr, 20.07. 8:00 - 0/8 0/8 - - -
Fr, 20.07. 2:00 - 0/8 0/8 - - -
Do, 19.07. 20:00 9000 m 2/8 0/8 - - -
Do, 19.07. 14:00 3000 m 8/8 8/8 - - -
Do, 19.07. 8:00 270 m 7/8 8/8 - - -
Ortszeit Bedeckungsgrad in Achtel und Wolkenuntergrenze
Sa, 21.07. 6:00 8
Sa, 21.07. 5:40 9 9 9
Sa, 21.07. 5:30 9 9 9
Sa, 21.07. 5:20 9 9 9
Sa, 21.07. 5:10 9 9 9
Sa, 21.07. 5:00 1(10500m)
Sa, 21.07. 4:50 keine Wolken
Sa, 21.07. 4:30 keine Wolken
Sa, 21.07. 4:00 keine Wolken
Sa, 21.07. 3:30 1(9000m) 3(10500m) 7(10500m)
Sa, 21.07. 3:00 8(10500m)
Sa, 21.07. 2:30 4(9000m) 7(10500m)
Ortszeit Luftdruck NN (hPa) Tendenz (hPa in 3 Std.)
Sa, 21.07. 2:00 1013 - 0,1
Fr, 20.07. 20:00 1013 0,0
Fr, 20.07. 14:00 1014 - 0,8
Fr, 20.07. 8:00 1015 - 0,2
Fr, 20.07. 2:00 1016 - 0,4
Do, 19.07. 20:00 1016 - 0,2
Do, 19.07. 14:00 1016 + 0,3
Do, 19.07. 8:00 1015 + 0,8
Ortszeit Luftdruck NN (hPa) Tendenz (hPa in 3 Std.)
Sa, 21.07. 6:00 1013 + 0,3
Sa, 21.07. 5:40 1013 keine Meldung
Sa, 21.07. 5:30 1013 - 0,1
Sa, 21.07. 5:20 1013 keine Meldung
Sa, 21.07. 5:10 1013 keine Meldung
Sa, 21.07. 5:00 1013 - 0,1
Sa, 21.07. 4:50 1013 keine Meldung
Sa, 21.07. 4:30 1013 - 0,2
Sa, 21.07. 4:00 1013 - 0,3
Sa, 21.07. 3:30 1013 - 0,7
Sa, 21.07. 3:00 1013 - 0,5
Sa, 21.07. 2:30 1013 - 0,1
Ortszeit Schneehöhe (cm)
Sa, 21.07. 2:00 -
Fr, 20.07. 20:00 -
Fr, 20.07. 14:00 -
Fr, 20.07. 8:00 -
Fr, 20.07. 2:00 -
Do, 19.07. 20:00 -
Do, 19.07. 14:00 -
Do, 19.07. 8:00 -
Ortszeit Schneehöhe (cm)
Sa, 21.07. 6:00 -
Sa, 21.07. 5:40 -
Sa, 21.07. 5:30 -
Sa, 21.07. 5:20 -
Sa, 21.07. 5:10 -
Sa, 21.07. 5:00 -
Sa, 21.07. 4:50 -
Sa, 21.07. 4:30 -
Sa, 21.07. 4:00 -
Sa, 21.07. 3:30 -
Sa, 21.07. 3:00 -
Sa, 21.07. 2:30 -
Link zu dieser Seite / Seite empfehlen

Das Wetter in ...